FW6530 Weather Reports


Display with metric or nautical units.
time (UTC)temp
F
wind
direction
speed
MPH
gust
MPH
rain 1hr
in
rain 24hr
in
rain mn
in
humidity
%
barometer
mb
20210927155022 57 260 3.0 7.0 0.00 0.00 0.00 68 1022.4
20210927154537 57 275 2.0 6.0 0.00 0.00 0.00 67 1022.5
20210927154023 56 187 1.0 7.0 0.00 0.00 0.00 68 1022.5
20210927153525 56 277 3.0 7.0 0.00 0.00 0.00 69 1022.4
20210927153051 56 292 3.0 8.0 0.00 0.00 0.00 69 1022.3
20210927152523 56 284 5.0 8.0 0.00 0.00 0.00 68 1022.4
20210927152022 57 319 3.0 8.0 0.00 0.00 0.00 67 1022.4
20210927151611 57 322 3.0 9.0 0.00 0.00 0.00 67 1022.4
20210927151029 57 284 4.0 9.0 0.00 0.00 0.00 66 1022.5
20210927150526 58 313 2.0 7.0 0.00 0.00 0.00 66 1022.6
20210927150124 58 273 2.0 9.0 0.00 0.00 0.00 66 1022.5
20210927145523 57 286 3.0 9.0 0.00 0.00 0.00 66 1022.5
20210927145024 57 280 2.0 7.0 0.00 0.00 0.00 66 1022.3
20210927144602 57 292 1.0 7.0 0.00 0.00 0.00 66 1022.2
20210927144023 58 265 2.0 5.0 0.00 0.00 0.00 66 1022.2
20210927143523 57 237 2.0 5.0 0.00 0.00 0.00 67 1022.2
20210927143034 57 288 2.0 4.0 0.00 0.00 0.00 66 1022.1
20210927142523 57 257 1.0 4.0 0.00 0.00 0.00 67 1022.0
20210927142022 57 252 1.0 4.0 0.00 0.00 0.00 67 1022.0
20210927141557 56 185 2.0 4.0 0.00 0.00 0.00 68 1022.0
20210927141023 56 146 0.0 2.0 0.00 0.00 0.00 69 1022.0
20210927140524 55 146 0.0 1.0 0.00 0.00 0.00 72 1022.0
20210927140050 53 0 0.0 1.0 0.00 0.00 0.00 75 1022.0
20210927135532 52 0 0.0 1.0 0.00 0.00 0.00 77 1022.0
20210927135024 50 0 0.0 1.0 0.00 0.00 0.00 79 1022.0
20210927134645 49 145 0.0 3.0 0.00 0.00 0.00 80 1022.0
20210927134023 48 0 1.0 3.0 0.00 0.00 0.00 81 1021.9
20210927133523 47 145 2.0 4.0 0.00 0.00 0.00 82 1021.8
20210927133114 46 146 1.0 4.0 0.00 0.00 0.00 83 1021.8
20210927132527 46 147 1.0 4.0 0.00 0.00 0.00 83 1021.8
20210927132031 45 148 2.0 4.0 0.00 0.00 0.00 83 1021.9
20210927131540 45 148 2.0 4.0 0.00 0.00 0.00 83 1021.8
20210927131021 45 148 1.0 3.0 0.00 0.00 0.00 83 1021.9
20210927130522 45 148 2.0 3.0 0.00 0.00 0.00 83 1021.8
20210927130157 45 148 2.0 3.0 0.00 0.00 0.00 82 1021.9
20210927125521 45 148 2.0 3.0 0.00 0.00 0.00 82 1021.8
20210927125035 45 148 1.0 3.0 0.00 0.00 0.00 81 1021.8
20210927124548 45 148 1.0 3.0 0.00 0.00 0.00 81 1021.6
20210927124028 46 148 0.0 4.0 0.00 0.00 0.00 81 1021.7
20210927123522 46 148 2.0 4.0 0.00 0.00 0.00 80 1021.7
20210927123128 46 148 2.0 4.0 0.00 0.00 0.00 80 1021.7
20210927122523 46 149 1.0 3.0 0.00 0.00 0.00 80 1021.7
20210927122022 46 149 2.0 3.0 0.00 0.00 0.00 80 1021.7
20210927121552 46 149 1.0 3.0 0.00 0.00 0.00 80 1021.6
20210927121022 46 149 1.0 2.0 0.00 0.00 0.00 79 1021.7
20210927120522 46 149 1.0 3.0 0.00 0.00 0.00 79 1021.6
20210927120036 46 149 2.0 3.0 0.00 0.00 0.00 79 1021.5
20210927115521 46 149 1.0 4.0 0.00 0.00 0.00 79 1021.7
20210927115023 46 149 2.0 4.0 0.00 0.00 0.00 79 1021.6
20210927114527 46 150 2.0 4.0 0.00 0.00 0.00 79 1021.6
20210927114026 46 155 2.0 5.0 0.00 0.00 0.00 79 1021.6
20210927113531 46 155 2.0 5.0 0.00 0.00 0.00 78 1021.6
20210927113039 46 157 2.0 5.0 0.00 0.00 0.00 78 1021.7
20210927112521 46 157 3.0 5.0 0.00 0.00 0.00 78 1021.7
20210927112026 46 158 3.0 5.0 0.00 0.00 0.00 77 1021.7
20210927111614 46 159 3.0 5.0 0.00 0.00 0.00 77 1021.7
20210927111038 47 159 1.0 4.0 0.00 0.00 0.00 76 1021.6
20210927110524 47 159 1.0 4.0 0.00 0.00 0.00 76 1021.6
20210927110032 47 159 1.0 4.0 0.00 0.00 0.00 75 1021.6
20210927105522 48 159 1.0 2.0 0.00 0.00 0.00 74 1021.8
20210927105024 48 0 0.0 2.0 0.00 0.00 0.00 74 1021.8
20210927104607 49 0 0.0 4.0 0.00 0.00 0.00 74 1021.8
20210927104034 49 159 1.0 4.0 0.00 0.00 0.00 73 1021.8
20210927103522 49 159 1.0 4.0 0.00 0.00 0.00 73 1021.8
20210927103041 49 159 1.0 4.0 0.00 0.00 0.00 73 1021.8
20210927102525 50 159 2.0 4.0 0.00 0.00 0.00 73 1021.7
20210927102040 50 159 0.0 4.0 0.00 0.00 0.00 72 1021.8
20210927101559 50 0 0.0 4.0 0.00 0.00 0.00 71 1021.8
20210927101026 50 159 0.0 4.0 0.00 0.00 0.00 72 1021.8
20210927100530 50 0 0.0 4.0 0.00 0.00 0.00 72 1021.8
20210927100051 51 159 2.0 4.0 0.00 0.00 0.00 71 1021.8
20210927095526 51 159 2.0 4.0 0.00 0.00 0.00 71 1021.7
20210927095032 51 159 1.0 4.0 0.00 0.00 0.00 71 1021.9
20210927094542 51 0 0.0 4.0 0.00 0.00 0.00 70 1021.9
20210927094036 51 159 2.0 4.0 0.00 0.00 0.00 70 1021.9
20210927093528 51 159 1.0 2.0 0.00 0.00 0.00 70 1022.0
20210927093122 51 159 0.0 2.0 0.00 0.00 0.00 70 1021.9
20210927092527 52 0 0.0 1.0 0.00 0.00 0.00 70 1022.0
20210927092032 52 159 0.0 2.0 0.00 0.00 0.00 69 1021.9
20210927091605 52 0 0.0 4.0 0.00 0.00 0.00 69 1021.9
20210927091024 52 159 2.0 4.0 0.00 0.00 0.00 69 1021.9
20210927090524 52 159 1.0 4.0 0.00 0.00 0.00 69 1021.9
20210927090112 52 159 1.0 4.0 0.00 0.00 0.00 69 1022.0
20210927085524 52 159 1.0 4.0 0.00 0.00 0.00 69 1022.1
20210927085037 52 159 0.0 2.0 0.00 0.00 0.00 68 1022.0
20210927084625 52 159 0.0 4.0 0.00 0.00 0.00 69 1022.2
20210927084026 53 0 1.0 4.0 0.00 0.00 0.00 68 1022.2
20210927083537 53 159 1.0 2.0 0.00 0.00 0.00 68 1022.2
20210927083118 53 159 0.0 1.0 0.00 0.00 0.00 68 1022.3
20210927082533 53 0 0.0 1.0 0.00 0.00 0.00 67 1022.3
20210927082036 53 0 0.0 2.0 0.00 0.00 0.00 67 1022.2
20210927081548 53 159 0.0 2.0 0.00 0.00 0.00 67 1022.2
20210927081035 53 159 0.0 2.0 0.00 0.00 0.00 67 1022.1
20210927080527 53 159 0.0 2.0 0.00 0.00 0.00 67 1022.2
20210927080034 54 0 0.0 2.0 0.00 0.00 0.00 67 1022.2
20210927075531 54 159 0.0 2.0 0.00 0.00 0.00 67 1022.3
20210927075024 54 159 1.0 2.0 0.00 0.00 0.00 67 1022.2
20210927074626 54 0 1.0 2.0 0.00 0.00 0.00 67 1022.3
20210927074031 54 0 0.0 2.0 0.00 0.00 0.00 66 1022.2
20210927073524 54 0 0.0 2.0 0.00 0.00 0.00 65 1022.3
20210927073102 54 159 1.0 4.0 0.00 0.00 0.00 65 1022.3
20210927072527 55 159 1.0 4.0 0.00 0.00 0.00 65 1022.4
20210927072029 55 159 0.0 2.0 0.00 0.00 0.00 65 1022.4
20210927071703 55 0 0.0 2.0 0.00 0.00 0.00 64 1022.4
20210927071032 55 0 0.0 2.0 0.00 0.00 0.00 64 1022.5
20210927070526 55 159 1.0 2.0 0.00 0.00 0.00 64 1022.5
20210927070044 55 0 0.0 2.0 0.00 0.00 0.00 63 1022.7
20210927065541 56 0 0.0 4.0 0.00 0.00 0.00 63 1022.7
20210927065024 56 0 0.0 4.0 0.00 0.00 0.00 62 1022.7
20210927064559 56 159 1.0 4.0 0.00 0.00 0.00 61 1022.7
20210927064024 56 0 1.0 4.0 0.00 0.00 0.00 61 1022.7
20210927063524 56 159 1.0 4.0 0.00 0.00 0.00 60 1022.9
20210927063051 56 175 1.0 4.0 0.00 0.00 0.00 60 1022.9
20210927062530 56 176 1.0 4.0 0.00 0.00 0.00 59 1022.9
20210927062024 56 176 1.0 3.0 0.00 0.00 0.00 59 1023.0
20210927061553 57 176 0.0 4.0 0.00 0.00 0.00 58 1023.1
20210927061025 57 0 1.0 4.0 0.00 0.00 0.00 57 1023.2
20210927060536 57 192 2.0 4.0 0.00 0.00 0.00 57 1023.3
20210927060052 57 193 2.0 4.0 0.00 0.00 0.00 57 1023.3
20210927055534 57 198 1.0 5.0 0.00 0.00 0.00 56 1023.3
20210927055024 57 204 2.0 5.0 0.00 0.00 0.00 55 1023.3
20210927054535 58 132 1.0 3.0 0.00 0.00 0.00 54 1023.5
20210927054033 58 0 0.0 3.0 0.00 0.00 0.00 54 1023.5
20210927053534 58 134 1.0 4.0 0.00 0.00 0.00 54 1023.5
20210927053033 58 134 1.0 5.0 0.00 0.00 0.00 54 1023.5
20210927052524 58 133 2.0 6.0 0.00 0.00 0.00 54 1023.5
20210927052040 59 163 3.0 6.0 0.00 0.00 0.00 54 1023.5
20210927051555 58 159 2.0 7.0 0.00 0.00 0.00 54 1023.6
20210927051035 59 155 2.0 7.0 0.00 0.00 0.00 54 1023.7
20210927050547 59 157 2.0 8.0 0.00 0.00 0.00 55 1023.7
20210927050137 59 167 2.0 8.0 0.00 0.00 0.00 55 1023.8
20210927045525 59 174 3.0 7.0 0.00 0.00 0.00 55 1023.6
20210927045024 59 155 3.0 8.0 0.00 0.00 0.00 55 1023.8
20210927044606 59 173 5.0 10.0 0.00 0.00 0.00 55 1023.8
20210927044026 59 134 3.0 10.0 0.00 0.00 0.00 55 1023.7
20210927043524 59 178 4.0 10.0 0.00 0.00 0.00 55 1023.8
20210927043034 59 151 4.0 12.0 0.00 0.00 0.00 55 1023.8
20210927042526 59 153 5.0 12.0 0.00 0.00 0.00 55 1023.8
20210927042037 60 136 6.0 10.0 0.00 0.00 0.00 56 1023.8
20210927041549 60 146 5.0 13.0 0.00 0.00 0.00 56 1023.7
20210927041036 60 182 7.0 17.0 0.00 0.00 0.00 54 1023.8
20210927040524 60 204 8.0 17.0 0.00 0.00 0.00 54 1023.8
20210927040209 60 175 5.0 13.0 0.00 0.00 0.00 55 1023.7
20210927035532 60 182 5.0 13.0 0.00 0.00 0.00 54 1023.6
20210927035024 60 241 1.0 3.0 0.00 0.00 0.00 54 1023.3
20210927034556 60 241 1.0 3.0 0.00 0.00 0.00 54 1023.1
20210927034023 60 0 1.0 2.0 0.00 0.00 0.00 53 1023.2
20210927033526 60 241 0.0 3.0 0.00 0.00 0.00 53 1023.2
20210927033026 60 241 1.0 3.0 0.00 0.00 0.00 53 1023.2
20210927032524 60 242 1.0 3.0 0.00 0.00 0.00 53 1023.1
20210927032025 61 242 1.0 3.0 0.00 0.00 0.00 53 1023.0
20210927031557 61 242 1.0 3.0 0.00 0.00 0.00 53 1023.0
20210927031032 61 242 1.0 3.0 0.00 0.00 0.00 53 1023.0
20210927030524 61 242 1.0 3.0 0.00 0.00 0.00 53 1023.0
20210927030028 61 242 1.0 2.0 0.00 0.00 0.00 52 1022.9
20210927025526 61 242 0.0 1.0 0.00 0.00 0.00 52 1022.8
20210927025030 61 0 0.0 2.0 0.00 0.00 0.00 52 1022.7
20210927024551 61 242 0.0 2.0 0.00 0.00 0.00 52 1022.7
20210927024026 62 0 1.0 2.0 0.00 0.00 0.00 51 1022.7
20210927023552 62 0 0.0 2.0 0.00 0.00 0.00 51 1022.7
20210927023150 62 0 0.0 2.0 0.00 0.00 0.00 51 1022.6
20210927022524 62 242 0.0 2.0 0.00 0.00 0.00 51 1022.6
20210927022024 62 242 0.0 1.0 0.00 0.00 0.00 50 1022.5
20210927021533 63 0 0.0 1.0 0.00 0.00 0.00 49 1022.4
20210927021024 63 0 0.0 2.0 0.00 0.00 0.00 49 1022.3
20210927020528 63 0 0.0 2.0 0.00 0.00 0.00 49 1022.2
20210927020051 63 242 0.0 3.0 0.00 0.00 0.00 49 1022.2
20210927015528 64 242 1.0 5.0 0.00 0.00 0.00 48 1022.2
20210927015025 64 243 2.0 6.0 0.00 0.00 0.00 48 1022.2
20210927014629 64 246 2.0 6.0 0.00 0.00 0.00 48 1022.1
20210927014025 64 252 1.0 4.0 0.00 0.00 0.00 48 1022.0
20210927013524 65 253 1.0 8.0 0.00 0.00 0.00 47 1021.8
20210927013036 65 253 1.0 8.0 0.00 0.00 0.00 47 1021.8
20210927012523 65 273 2.0 8.0 0.00 0.00 0.00 47 1021.8
20210927012026 65 279 4.0 8.0 0.00 0.00 0.00 47 1021.8
20210927011555 65 220 3.0 8.0 0.00 0.00 0.00 47 1021.8
20210927011030 65 296 2.0 7.0 0.00 0.00 0.00 47 1021.8
20210927010538 66 284 4.0 10.0 0.00 0.00 0.00 47 1021.6
20210927010047 66 296 5.0 10.0 0.00 0.00 0.00 47 1021.5
20210927005523 66 254 6.0 11.0 0.00 0.00 0.00 47 1021.5
20210927005024 66 292 5.0 12.0 0.00 0.00 0.00 46 1021.5
20210927004543 66 288 7.0 12.0 0.00 0.00 0.00 46 1021.5
20210927004024 67 289 7.0 12.0 0.00 0.00 0.00 46 1021.5
20210927003524 67 284 4.0 15.0 0.00 0.00 0.00 45 1021.5
20210927003047 67 260 7.0 15.0 0.00 0.00 0.00 44 1021.5
20210927002527 68 258 8.0 15.0 0.00 0.00 0.00 43 1021.5
20210927002032 69 270 6.0 12.0 0.00 0.00 0.00 42 1021.4
20210927001621 69 267 6.0 11.0 0.00 0.00 0.00 40 1021.3
20210927001024 69 269 6.0 11.0 0.00 0.00 0.00 38 1021.3
20210927000524 69 281 6.0 12.0 0.00 0.00 0.00 38 1021.4
20210927000047 70 274 5.0 12.0 0.00 0.00 0.00 37 1021.4
20210926235523 70 301 3.0 8.0 0.00 0.00 0.00 37 1021.3
20210926235023 71 227 4.0 8.0 0.00 0.00 0.00 36 1021.4
20210926234555 71 243 4.0 9.0 0.00 0.00 0.00 35 1021.4
20210926234035 71 265 4.0 13.0 0.00 0.00 0.00 34 1021.5
20210926233527 72 278 6.0 13.0 0.00 0.00 0.00 34 1021.5
20210926233129 72 257 2.0 8.0 0.00 0.00 0.00 35 1021.4
20210926232523 72 259 3.0 8.0 0.00 0.00 0.00 35 1021.4
20210926232046 71 238 4.0 11.0 0.00 0.00 0.00 35 1021.4
20210926231537 71 252 6.0 11.0 0.00 0.00 0.00 34 1021.5
20210926231024 72 280 4.0 11.0 0.00 0.00 0.00 33 1021.4
20210926230524 73 300 6.0 12.0 0.00 0.00 0.00 33 1021.5
20210926230138 72 260 5.0 12.0 0.00 0.00 0.00 33 1021.4
20210926225526 72 246 4.0 9.0 0.00 0.00 0.00 35 1021.4
20210926225035 72 232 3.0 8.0 0.00 0.00 0.00 36 1021.5
20210926224630 71 279 3.0 9.0 0.00 0.00 0.00 35 1021.5
20210926224024 72 286 4.0 9.0 0.00 0.00 0.00 35 1021.6
20210926223527 72 190 3.0 11.0 0.00 0.00 0.00 35 1021.5
20210926223041 71 275 4.0 11.0 0.00 0.00 0.00 35 1021.7
20210926222540 71 296 6.0 10.0 0.00 0.00 0.00 35 1021.6
20210926222023 72 252 4.0 10.0 0.00 0.00 0.00 34 1021.6
20210926221545 72 252 4.0 10.0 0.00 0.00 0.00 34 1021.6
20210926221032 73 313 3.0 13.0 0.00 0.00 0.00 34 1021.6
20210926220523 73 225 6.0 15.0 0.00 0.00 0.00 35 1021.5
20210926220106 73 260 7.0 15.0 0.00 0.00 0.00 34 1021.7
20210926215526 72 296 4.0 11.0 0.00 0.00 0.00 34 1021.5
20210926215025 72 310 5.0 11.0 0.00 0.00 0.00 33 1021.6
20210926214528 73 307 5.0 13.0 0.00 0.00 0.00 33 1021.7
20210926214036 74 284 7.0 13.0 0.00 0.00 0.00 33 1021.6
20210926213526 73 306 8.0 13.0 0.00 0.00 0.00 34 1021.6
20210926213124 72 282 7.0 13.0 0.00 0.00 0.00 36 1021.7
20210926212531 72 315 4.0 11.0 0.00 0.00 0.00 36 1021.8
20210926212022 72 300 5.0 8.0 0.00 0.00 0.00 37 1021.8
20210926211537 72 278 3.0 11.0 0.00 0.00 0.00 37 1021.7
20210926211033 71 296 5.0 11.0 0.00 0.00 0.00 37 1021.8
20210926210532 71 257 5.0 14.0 0.00 0.00 0.00 37 1021.8
20210926210116 71 309 6.0 14.0 0.00 0.00 0.00 38 1022.0
20210926205525 72 264 5.0 13.0 0.00 0.00 0.00 36 1022.0
20210926205022 71 318 6.0 13.0 0.00 0.00 0.00 37 1022.0
20210926204622 71 304 6.0 13.0 0.00 0.00 0.00 37 1022.1
20210926204031 72 254 6.0 12.0 0.00 0.00 0.00 37 1022.1
20210926203522 72 232 5.0 11.0 0.00 0.00 0.00 37 1022.2
20210926203058 72 313 4.0 13.0 0.00 0.00 0.00 36 1022.2
20210926202525 72 256 6.0 13.0 0.00 0.00 0.00 36 1022.4
20210926202032 72 330 3.0 10.0 0.00 0.00 0.00 35 1022.4
20210926201617 72 263 4.0 13.0 0.00 0.00 0.00 35 1022.5
20210926201023 73 289 7.0 15.0 0.00 0.00 0.00 35 1022.7
20210926200536 73 300 7.0 15.0 0.00 0.00 0.00 36 1022.6
20210926200038 73 283 6.0 12.0 0.00 0.00 0.00 36 1022.6
20210926195523 72 202 6.0 14.0 0.00 0.00 0.00 38 1022.7
20210926195022 73 248 8.0 14.0 0.00 0.00 0.00 37 1022.7
20210926194624 72 247 7.0 14.0 0.00 0.00 0.00 37 1022.9
20210926194031 72 217 3.0 13.0 0.00 0.00 0.00 38 1022.9
20210926193534 72 286 6.0 13.0 0.00 0.00 0.00 37 1023.0
20210926193033 72 200 4.0 13.0 0.00 0.00 0.00 39 1023.1
20210926192535 72 223 7.0 13.0 0.00 0.00 0.00 39 1023.1
20210926192023 72 273 5.0 13.0 0.00 0.00 0.00 39 1023.3
20210926191558 72 282 3.0 13.0 0.00 0.00 0.00 39 1023.3
20210926191022 72 250 6.0 13.0 0.00 0.00 0.00 39 1023.4
20210926190554 72 317 2.0 13.0 0.00 0.00 0.00 40 1023.5
20210926190059 72 250 5.0 11.0 0.00 0.00 0.00 40 1023.6
20210926185522 71 322 3.0 14.0 0.00 0.00 0.00 40 1023.6
20210926185030 71 318 5.0 14.0 0.00 0.00 0.00 40 1023.6
20210926184537 71 276 5.0 12.0 0.00 0.00 0.00 41 1023.7
20210926184023 70 301 5.0 15.0 0.00 0.00 0.00 42 1023.8
20210926183524 70 313 9.0 15.0 0.00 0.00 0.00 42 1023.9
20210926183106 70 208 7.0 13.0 0.00 0.00 0.00 42 1023.8
20210926182524 70 297 5.0 12.0 0.00 0.00 0.00 42 1024.0
20210926182024 70 284 7.0 12.0 0.00 0.00 0.00 42 1024.0
20210926181603 70 283 5.0 14.0 0.00 0.00 0.00 43 1024.0
20210926181031 70 309 6.0 14.0 0.00 0.00 0.00 42 1024.1
20210926180526 70 296 8.0 14.0 0.00 0.00 0.00 43 1024.2
20210926180038 69 321 6.0 14.0 0.00 0.00 0.00 44 1024.1
20210926175523 69 327 9.0 14.0 0.00 0.00 0.00 44 1024.3
20210926175034 68 284 5.0 13.0 0.00 0.00 0.00 45 1024.2
20210926174557 68 312 6.0 14.0 0.00 0.00 0.00 46 1024.3
20210926174023 68 311 6.0 14.0 0.00 0.00 0.00 45 1024.4
20210926173524 68 223 4.0 13.0 0.00 0.00 0.00 46 1024.6
20210926173044 68 352 6.0 13.0 0.00 0.00 0.00 46 1024.7
20210926172522 67 279 4.0 13.0 0.00 0.00 0.00 47 1024.7
20210926172024 66 329 4.0 10.0 0.00 0.00 0.00 48 1024.9
20210926171604 65 338 3.0 9.0 0.00 0.00 0.00 50 1024.9
20210926171025 65 311 3.0 12.0 0.00 0.00 0.00 50 1024.9
20210926170522 65 321 5.0 12.0 0.00 0.00 0.00 49 1024.9
20210926170052 66 240 4.0 12.0 0.00 0.00 0.00 48 1024.9
20210926165523 66 322 5.0 12.0 0.00 0.00 0.00 48 1025.0
20210926165022 67 312 3.0 12.0 0.00 0.00 0.00 47 1024.9
20210926164602 67 288 5.0 12.0 0.00 0.00 0.00 46 1025.0
20210926164035 67 327 4.0 12.0 0.00 0.00 0.00 46 1024.9
20210926163522 67 323 6.0 12.0 0.00 0.00 0.00 46 1025.0
20210926163111 67 351 3.0 12.0 0.00 0.00 0.00 46 1025.0
20210926162538 68 294 3.0 9.0 0.00 0.00 0.00 46 1025.0
20210926162023 67 0 2.0 9.0 0.00 0.00 0.00 46 1025.1
20210926161554 67 338 3.0 7.0 0.00 0.00 0.00 48 1025.0
20210926161023 66 336 3.0 6.0 0.00 0.00 0.00 49 1025.0
20210926160525 65 326 2.0 9.0 0.00 0.00 0.00 50 1025.0
20210926160134 64 352 3.0 9.0 0.00 0.00 0.00 50 1025.1
20210926155528 64 315 3.0 8.0 0.00 0.00 0.00 51 1025.2